When you browse on this site, cookies collect data to enhance your experience and personalize the content and advertising you see.
Visit our Privacy Policy to learn more. By continuing to use the site, you agree to this use of cookies and data.
  • En España
  • Lista de países
  • Para 7 días
  • Temperatura del agua
  • El tiempo en el mapa
  • Informadores
  • user-avatar
    Iniciar sesión

    Tiempo cada hora Aden

    Hoy, 21 Agosto, Miércoles

    Tiempo Temperatura Precipitaciones Viento Presión Humedad
    00:00 +36°C° 0 mm 3 mps 753 mmHg 51%
    01:00 +35°C° 0 mm 4 mps 752 mmHg 52%
    02:00 +35°C° 0 mm 4 mps 752 mmHg 54%
    03:00 +34°C° 0 mm 5 mps 752 mmHg 59%
    04:00 +34°C° 0 mm 4 mps 752 mmHg 63%
    05:00 +33°C° 0 mm 4 mps 753 mmHg 67%
    06:00 +33°C° 0 mm 3 mps 753 mmHg 72%
    07:00 +34°C° 0 mm 3 mps 754 mmHg 66%
    08:00 +35°C° 0 mm 4 mps 754 mmHg 61%
    09:00 +36°C° 0 mm 4 mps 755 mmHg 56%
    10:00 +37°C° 0 mm 4 mps 755 mmHg 55%
    11:00 +37°C° 0 mm 3 mps 755 mmHg 53%
    12:00 +38°C° 0 mm 3 mps 755 mmHg 52%
    13:00 +39°C° 0 mm 3 mps 754 mmHg 49%
    14:00 +39°C° 0 mm 2 mps 753 mmHg 47%
    15:00 +39°C° 0 mm 2 mps 752 mmHg 44%
    16:00 +39°C° 0 mm 2 mps 752 mmHg 48%
    17:00 +38°C° 0 mm 3 mps 752 mmHg 52%
    18:00 +37°C° 0 mm 3 mps 752 mmHg 55%
    19:00 +37°C° 0 mm 3 mps 752 mmHg 56%
    20:00 +36°C° 0 mm 2 mps 752 mmHg 57%
    21:00 +36°C° 0 mm 2 mps 752 mmHg 58%
    22:00 +36°C° 0 mm 2 mps 753 mmHg 58%
    23:00 +35°C° 0 mm 2 mps 753 mmHg 57%

    Mañana, 22 Agosto, Jueves

    Tiempo Temperatura Precipitaciones Viento Presión Humedad
    00:00 +35°C° 0 mm 2 mps 753 mmHg 57%
    01:00 +35°C° 0 mm 2 mps 753 mmHg 59%
    02:00 +34°C° 0 mm 3 mps 752 mmHg 61%
    03:00 +33°C° 0 mm 3 mps 752 mmHg 63%
    04:00 +33°C° 0 mm 3 mps 752 mmHg 63%
    05:00 +33°C° 0 mm 3 mps 753 mmHg 63%
    06:00 +33°C° 0 mm 4 mps 754 mmHg 63%
    07:00 +34°C° 0 mm 4 mps 754 mmHg 57%
    08:00 +35°C° 0 mm 3 mps 754 mmHg 52%
    09:00 +36°C° 0 mm 3 mps 754 mmHg 47%
    10:00 +37°C° 0 mm 3 mps 754 mmHg 45%
    11:00 +38°C° 0 mm 4 mps 754 mmHg 43%
    12:00 +38°C° 0 mm 4 mps 754 mmHg 41%
    13:00 +40°C° 0 mm 4 mps 753 mmHg 42%
    14:00 +40°C° 0 mm 4 mps 752 mmHg 43%
    15:00 +40°C° 0 mm 4 mps 751 mmHg 43%
    16:00 +38°C° 0 mm 3 mps 752 mmHg 43%
    17:00 +38°C° 0 mm 2 mps 752 mmHg 43%
    18:00 +37°C° 0 mm 1 mps 752 mmHg 43%
    19:00 +37°C° 0 mm 1 mps 752 mmHg 43%
    20:00 +38°C° 0 mm 2 mps 752 mmHg 42%
    21:00 +38°C° 0 mm 2 mps 753 mmHg 41%
    22:00 +38°C° 0 mm 2 mps 753 mmHg 43%
    23:00 +36°C° 0 mm 1 mps 753 mmHg 45%

    Pasado mañana, 23 Agosto, Viernes

    Tiempo Temperatura Precipitaciones Viento Presión Humedad
    00:00 +36°C° 0 mm 1 mps 753 mmHg 46%
    01:00 +37°C° 0 mm 3 mps 752 mmHg 48%
    02:00 +36°C° 0 mm 5 mps 752 mmHg 50%
    03:00 +36°C° 0 mm 7 mps 752 mmHg 51%
    04:00 +35°C° 0 mm 5 mps 752 mmHg 54%
    05:00 +34°C° 0 mm 3 mps 753 mmHg 57%
    06:00 +32°C° 0 mm 1 mps 753 mmHg 60%
    07:00 +35°C° 0 mm 2 mps 754 mmHg 55%
    08:00 +36°C° 0 mm 3 mps 754 mmHg 51%
    09:00 +37°C° 0 mm 4 mps 754 mmHg 46%
    10:00 +38°C° 0 mm 4 mps 754 mmHg 44%
    11:00 +40°C° 0 mm 4 mps 754 mmHg 41%
    12:00 +41°C° 0 mm 4 mps 754 mmHg 38%
    13:00 +41°C° 0 mm 4 mps 753 mmHg 38%
    14:00 +41°C° 0 mm 4 mps 753 mmHg 38%
    15:00 +40°C° 0 mm 4 mps 752 mmHg 37%
    16:00 +39°C° 0 mm 3 mps 752 mmHg 37%
    17:00 +39°C° 0 mm 2 mps 752 mmHg 37%
    18:00 +36°C° 0 mm 0 mps 753 mmHg 37%
    19:00 +39°C° 0.1 mm 1 mps 753 mmHg 35%
    20:00 +37°C° 0.1 mm 1 mps 753 mmHg 33%
    21:00 +38°C° 0.1 mm 2 mps 754 mmHg 31%
    22:00 +38°C° 0 mm 2 mps 753 mmHg 32%
    23:00 +38°C° 0 mm 2 mps 753 mmHg 32%

    24 Agosto, Sábado

    Tiempo Temperatura Precipitaciones Viento Presión Humedad
    00:00 +37°C° 0 mm 2 mps 753 mmHg 33%
    01:00 +37°C° 0 mm 2 mps 753 mmHg 35%
    02:00 +36°C° 0 mm 2 mps 753 mmHg 37%
    03:00 +36°C° 0 mm 2 mps 752 mmHg 39%
    04:00 +35°C° 0 mm 2 mps 753 mmHg 44%
    05:00 +35°C° 0 mm 2 mps 753 mmHg 48%
    06:00 +34°C° 0 mm 2 mps 754 mmHg 52%
    07:00 +36°C° 0 mm 2 mps 754 mmHg 48%
    08:00 +37°C° 0 mm 2 mps 755 mmHg 44%
    09:00 +37°C° 0 mm 1 mps 755 mmHg 39%
    10:00 +39°C° 0 mm 3 mps 755 mmHg 36%
    11:00 +41°C° 0 mm 4 mps 754 mmHg 33%
    12:00 +42°C° 0 mm 5 mps 754 mmHg 29%
    13:00 +42°C° 0 mm 5 mps 753 mmHg 30%
    14:00 +42°C° 0 mm 5 mps 753 mmHg 30%
    15:00 +42°C° 0 mm 5 mps 752 mmHg 30%
    16:00 +41°C° 0 mm 4 mps 752 mmHg 32%
    17:00 +39°C° 0 mm 3 mps 752 mmHg 34%
    18:00 +39°C° 0 mm 2 mps 752 mmHg 35%
    19:00 +37°C° 0 mm 1 mps 752 mmHg 36%
    20:00 +37°C° 0 mm 1 mps 753 mmHg 38%
    21:00 +36°C° 0 mm 1 mps 753 mmHg 39%
    22:00 +36°C° 0 mm 1 mps 753 mmHg 40%
    23:00 +36°C° 0 mm 1 mps 753 mmHg 40%

    25 Agosto, Domingo

    Tiempo Temperatura Precipitaciones Viento Presión Humedad
    00:00 +36°C° 0 mm 1 mps 752 mmHg 41%
    01:00 +36°C° 0 mm 2 mps 752 mmHg 43%
    02:00 +35°C° 0 mm 3 mps 752 mmHg 45%
    03:00 +35°C° 0 mm 5 mps 752 mmHg 47%
    04:00 +35°C° 0 mm 5 mps 752 mmHg 51%
    05:00 +34°C° 0 mm 5 mps 752 mmHg 54%
    06:00 +34°C° 0 mm 5 mps 753 mmHg 57%
    07:00 +35°C° 0 mm 5 mps 753 mmHg 52%
    08:00 +36°C° 0 mm 5 mps 754 mmHg 47%
    09:00 +37°C° 0 mm 5 mps 754 mmHg 41%
    10:00 +39°C° 0 mm 6 mps 754 mmHg 41%
    11:00 +40°C° 0 mm 7 mps 753 mmHg 40%
    12:00 +43°C° 0 mm 7 mps 753 mmHg 39%
    13:00 +41°C° 0 mm 7 mps 752 mmHg 39%
    14:00 +41°C° 0 mm 6 mps 752 mmHg 39%
    15:00 +41°C° 0 mm 6 mps 751 mmHg 39%
    16:00 +40°C° 0 mm 6 mps 751 mmHg 39%
    17:00 +40°C° 0 mm 6 mps 751 mmHg 40%
    18:00 +40°C° 0 mm 6 mps 751 mmHg 41%
    19:00 +39°C° 0 mm 5 mps 751 mmHg 42%
    20:00 +39°C° 0 mm 5 mps 752 mmHg 44%
    21:00 +37°C° 0 mm 4 mps 752 mmHg 46%
    22:00 +36°C° 0 mm 4 mps 752 mmHg 48%
    23:00 +36°C° 0 mm 4 mps 752 mmHg 49%

    26 Agosto, Lunes

    Tiempo Temperatura Precipitaciones Viento Presión Humedad
    00:00 +35°C° 0 mm 4 mps 752 mmHg 51%
    01:00 +35°C° 0 mm 4 mps 751 mmHg 52%
    02:00 +35°C° 0 mm 5 mps 751 mmHg 54%
    03:00 +34°C° 0 mm 5 mps 751 mmHg 56%
    04:00 +34°C° 0 mm 5 mps 752 mmHg 55%
    05:00 +34°C° 0 mm 5 mps 752 mmHg 55%
    06:00 +35°C° 0 mm 5 mps 753 mmHg 54%
    07:00 +36°C° 0 mm 6 mps 753 mmHg 51%
    08:00 +38°C° 0 mm 6 mps 754 mmHg 48%
    09:00 +39°C° 0 mm 6 mps 754 mmHg 45%
    10:00 +40°C° 0 mm 6 mps 754 mmHg 43%
    11:00 +41°C° 0 mm 6 mps 753 mmHg 40%
    12:00 +41°C° 0 mm 5 mps 753 mmHg 37%
    13:00 +42°C° 0 mm 6 mps 752 mmHg 36%
    14:00 +42°C° 0 mm 6 mps 751 mmHg 35%
    15:00 +42°C° 0 mm 6 mps 751 mmHg 34%
    16:00 +41°C° 0 mm 6 mps 750 mmHg 38%
    17:00 +40°C° 0 mm 6 mps 750 mmHg 41%
    18:00 +39°C° 0 mm 6 mps 750 mmHg 45%
    19:00 +38°C° 0 mm 6 mps 751 mmHg 46%
    20:00 +38°C° 0 mm 6 mps 751 mmHg 47%
    21:00 +36°C° 0 mm 7 mps 752 mmHg 48%
    22:00 +36°C° 0 mm 6 mps 752 mmHg 47%
    23:00 +36°C° 0 mm 5 mps 751 mmHg 46%
    Mostrar más